Pittsburgh, PA

1:23 PM EST on November 20, 2017 (GMT -0500)
Pittsburgh International

Weather History for KPIT - December, 2014

Change the Weather History Date:

Tuesday, December 23, 2014

  Actual Average Record
Temperature  
Mean Temperature 46 °F 30 °F  
Max Temperature 53 °F 37 °F 64 °F (2015)
Min Temperature 39 °F 23 °F -3 °F (1960)
Degree Days  
Heating Degree Days 19 35  
Month to date heating degree days 683 729  
Since 1 July heating degree days 1921 1892  
Cooling Degree Days 0 0  
Month to date cooling degree days 0 0  
Year to date cooling degree days 700 736  
Moisture  
Dew Point 43 °F    
Average Humidity 90    
Maximum Humidity 100    
Minimum Humidity 79    
Precipitation  
Precipitation 0.22 in 0.09 in 1.33 in (1883)
Month to date precipitation 2.18 2.14  
Year to date precipitation 36.39 37.48  
Snow  
Snow 0.00 in 0.30 in 5.00 in (1929)
Month to date snowfall 0.2 5.8  
Since 1 July snowfall 3.3 8.2  
Snow Depth 0.00 in    
Sea Level Pressure  
Sea Level Pressure 29.91 in    
Wind  
Wind Speed 6 mph (ESE)    
Max Wind Speed 16 mph    
Max Gust Speed 18 mph    
Visibility 8 miles    
Events Rain    
T = Trace of Precipitation, MM = Missing Value Source: NWS Daily Summary

Daily Weather History Graph

Daily Weather History Graph

Search for Another Location

Airport or City:

Trip Planner

Search our weather history database for the weather conditions in past years. The results will help you decide how hot, cold, wet, or windy it might be!

Date:

Astronomy

Dec. 23, 2014 Rise Set
Actual Time 7:41 AM EST 4:58 PM EST
Civil Twilight 7:10 AM EST 5:29 PM EST
Nautical Twilight 6:36 AM EST 6:03 PM EST
Astronomical Twilight 6:03 AM EST 6:36 PM EST
Moon 8:44 AM EST (12/23) 7:12 PM EST (12/23)
Length of Visible Light 10h 18m
Length of Day
9h 16m
Waxing Crescent, 4% of the Moon is Illuminated
Dec 23
Waxing Crescent
Dec 28
First Quarter
Jan 4
Full
Jan 13
Last Quarter
Jan 20
New

Hourly Weather History & Observations

Time (EST) Temp. Windchill Dew Point Humidity Pressure Visibility Wind Dir Wind Speed Gust Speed Precip Events Conditions
12:51 AM 39.0 °F 32.8 °F 35.1 °F 86% 29.96 in 10.0 mi SE 9.2 mph - 0.01 in Rain Light Rain
1:51 AM 39.0 °F 31.8 °F 37.0 °F 93% 29.91 in 10.0 mi SE 11.5 mph - 0.01 in   Overcast
2:51 AM 39.0 °F 33.4 °F 36.0 °F 89% 29.91 in 10.0 mi SE 8.1 mph - N/A   Mostly Cloudy
3:51 AM 39.9 °F 34.5 °F 37.0 °F 89% 29.91 in 10.0 mi ESE 8.1 mph - N/A   Overcast
4:51 AM 39.9 °F 36.7 °F 37.9 °F 93% 29.93 in 10.0 mi ESE 4.6 mph - 0.01 in Rain Light Rain
5:51 AM 39.9 °F 35.8 °F 39.0 °F 97% 29.93 in 5.0 mi ESE 5.8 mph - 0.08 in Rain Light Rain
6:44 AM 41.0 °F 36.4 °F 39.9 °F 96% 29.88 in 5.0 mi East 6.9 mph - 0.08 in Rain Light Rain
6:51 AM 41.0 °F 35.2 °F 39.9 °F 96% 29.93 in 5.0 mi ESE 9.2 mph - 0.08 in Rain Light Rain
7:27 AM 41.0 °F 37.1 °F 39.9 °F 96% 29.87 in 2.0 mi ESE 5.8 mph - 0.02 in Rain Light Rain
7:43 AM 42.1 °F 39.2 °F 41.0 °F 96% 29.88 in 2.5 mi ESE 4.6 mph - 0.02 in   Light Drizzle
7:51 AM 42.1 °F 37.7 °F 41.0 °F 96% 29.93 in 2.5 mi ESE 6.9 mph - 0.02 in   Light Drizzle
8:19 AM 42.1 °F 38.4 °F 41.0 °F 96% 29.88 in 2.5 mi ESE 5.8 mph - 0.01 in   Light Drizzle
8:29 AM 42.8 °F 40.1 °F 41.0 °F 93% 29.88 in 6.0 mi East 4.6 mph - N/A   Overcast
8:51 AM 42.1 °F 37.7 °F 41.0 °F 96% 29.94 in 5.0 mi ESE 6.9 mph - 0.01 in   Light Drizzle
9:51 AM 44.1 °F 41.5 °F 42.1 °F 93% 29.95 in 7.0 mi East 4.6 mph - 0.00 in   Overcast
10:51 AM 45.0 °F 42.6 °F 44.1 °F 97% 29.96 in 8.0 mi ESE 4.6 mph - N/A   Overcast
11:51 AM 46.9 °F - 44.1 °F 90% 29.94 in 10.0 mi ESE 8.1 mph - N/A   Overcast
12:14 PM 46.9 °F - 45.0 °F 93% 29.89 in 10.0 mi ESE 6.9 mph - N/A   Overcast
12:46 PM 48.2 °F - 46.4 °F 93% 29.88 in 10.0 mi SE 5.8 mph - N/A   Overcast
12:51 PM 48.9 °F - 46.0 °F 90% 29.93 in 10.0 mi SE 4.6 mph - N/A   Overcast
1:32 PM 51.1 °F - 48.0 °F 89% 29.87 in 10.0 mi ESE 5.8 mph - N/A   Mostly Cloudy
1:51 PM 52.0 °F - 48.0 °F 86% 29.90 in 10.0 mi ESE 6.9 mph - N/A   Mostly Cloudy
2:51 PM 53.1 °F - 48.0 °F 83% 29.90 in 10.0 mi ESE 6.9 mph - N/A   Overcast
3:51 PM 53.1 °F - 48.9 °F 86% 29.90 in 10.0 mi ESE 3.5 mph - N/A   Overcast
4:51 PM 52.0 °F - 48.0 °F 86% 29.91 in 10.0 mi ESE 4.6 mph - N/A   Overcast
5:51 PM 52.0 °F - 48.0 °F 86% 29.90 in 10.0 mi Calm Calm - N/A   Overcast
6:51 PM 52.0 °F - 46.9 °F 83% 29.90 in 10.0 mi East 6.9 mph - N/A   Overcast
7:51 PM 51.1 °F - 46.0 °F 83% 29.89 in 10.0 mi East 5.8 mph - N/A   Overcast
8:51 PM 50.0 °F - 46.0 °F 86% 29.88 in 10.0 mi East 5.8 mph - N/A   Overcast
9:51 PM 48.0 °F - 44.1 °F 86% 29.88 in 10.0 mi East 6.9 mph - N/A   Mostly Cloudy
10:51 PM 46.9 °F - 44.1 °F 90% 29.86 in 10.0 mi East 5.8 mph - N/A   Overcast
11:51 PM 46.9 °F - 43.0 °F 86% 29.86 in 10.0 mi East 9.2 mph - 0.00 in Rain Light Rain